Weather History for Monte Cimone, Italy

Change the Weather History Date:

Tuesday, April 2, 2013

  Actual Average Record
Temperature  
Mean Temperature 26 °F -  
Max Temperature 30 °F 35 °F 44 °F (2011)
Min Temperature 23 °F 27 °F 17 °F (2005)
Degree Days  
Heating Degree Days 38    
Moisture  
Dew Point 24 °F    
Average Humidity 90    
Maximum Humidity 93    
Minimum Humidity 84    
Precipitation  
Precipitation 0.00 in 0.07 in - ()
Sea Level Pressure  
Sea Level Pressure 29.44 in    
Wind  
Wind Speed 22 mph ()    
Max Wind Speed 29 mph    
Max Gust Speed -    
Visibility 0.0 miles    
Events Fog , Snow    
Averages and records for this station are not official NWS values.
T = Trace of Precipitation, MM = Missing Value Source: Averaged Metar Reports

Daily Weather History Graph

Daily Weather History Graph

Search for Another Location

Airport:

Trip Planner

Search our weather history database for the weather conditions in past years. The results will help you decide how hot, cold, wet, or windy it might be!

Date:

Astronomy

Apr. 02, 2013 Rise Set
Actual Time 6:56 AM CEST 7:45 PM CEST
Civil Twilight 6:27 AM CEST 8:14 PM CEST
Nautical Twilight 5:52 AM CEST 8:49 PM CEST
Astronomical Twilight 5:16 AM CEST 9:26 PM CEST
Moon 1:44 AM CEST (4/2) 11:20 AM CEST (4/2)
Length of Visible Light 13h 47m
Length of Day
12h 48m
Waning Gibbous, 59% of the Moon is Illuminated
Apr 2
Waning Gibbous
Apr 3
Last Quarter
Apr 10
New
Apr 18
First Quarter
Apr 25
Full

Hourly Weather History & Observations

Time (CEST) Temp. Windchill Dew Point Humidity Pressure Visibility Wind Dir Wind Speed Gust Speed Precip Events Conditions
12:55 AM 26.6 °F 11.7 °F 24.8 °F 93% 29.44 in - South 24.2 mph - N/A Fog Light Freezing Fog
1:55 AM 24.8 °F 9.0 °F 23.0 °F 93% 29.44 in - NNW 25.3 mph - N/A Fog Light Freezing Fog
2:00 AM 26 °F - 23 °F 84%  in 0 mi NNW 25.3 mph - - Snow Light Snow
2:55 AM 24.8 °F 8.7 °F 23.0 °F 93% 29.42 in - NNW 26.5 mph - N/A Fog Light Freezing Fog
3:55 AM 24.8 °F 8.1 °F 23.0 °F 93% 29.39 in 0.0 mi NNW 28.8 mph - N/A Fog Light Freezing Fog
4:55 AM 24.8 °F 8.7 °F 21.2 °F 86% 29.39 in 0.0 mi NNW 26.5 mph - N/A Fog Light Freezing Fog
5:55 AM 24.8 °F 10.3 °F 21.2 °F 86% 29.39 in 0.0 mi NNE 20.7 mph - N/A Fog Light Freezing Fog
6:55 AM 23.0 °F 8.0 °F 21.2 °F 93% 29.39 in 0.0 mi NNE 20.7 mph - N/A Fog Light Freezing Fog
7:55 AM 23.0 °F 7.2 °F 21.2 °F 93% 29.39 in 0.0 mi NE 23.0 mph - N/A Fog Light Freezing Fog
8:00 AM 23 °F - 21 °F 87%  in 0 mi NE 23.0 mph - - Fog Heavy Fog
8:55 AM 23.0 °F 6.6 °F 21.2 °F 93% 29.39 in 0.0 mi NE 25.3 mph - N/A Fog Light Freezing Fog
9:55 AM 23.0 °F 7.2 °F 21.2 °F 93% 29.39 in 0.0 mi NE 23.0 mph - N/A Fog Light Freezing Fog
10:55 AM 24.8 °F 8.7 °F 21.2 °F 86% 29.42 in 0.0 mi NE 26.5 mph - N/A Fog Light Freezing Fog
11:55 AM 24.8 °F 9.6 °F 23.0 °F 93% 29.44 in 0.0 mi NE 23.0 mph - N/A Fog Light Freezing Fog
12:55 PM 26.6 °F 11.7 °F 23.0 °F 86% 29.44 in 0.0 mi NE 24.2 mph - N/A Fog Light Freezing Fog
1:55 PM 26.6 °F 12.0 °F 24.8 °F 93% 29.47 in 0.0 mi NE 23.0 mph - N/A Fog Light Freezing Fog
2:00 PM 26 °F - 24 °F 88%  in 0 mi NE 23.0 mph - - Fog Heavy Fog
2:55 PM 28.4 °F 14.4 °F 26.6 °F 93% 29.47 in 0.0 mi NE 23.0 mph - N/A Fog Light Freezing Fog
3:55 PM 28.4 °F 13.8 °F 26.6 °F 93% 29.47 in 0.0 mi NE 25.3 mph - N/A Fog Light Freezing Fog
4:55 PM 28.4 °F 13.8 °F 26.6 °F 93% 29.47 in 0.0 mi NE 25.3 mph - N/A Fog Light Freezing Fog
5:55 PM 28.4 °F 15.1 °F 26.6 °F 93% 29.47 in 0.0 mi NE 20.7 mph - N/A Fog Light Freezing Fog
6:55 PM 28.4 °F 15.1 °F 26.6 °F 93% 29.47 in 0.0 mi NE 20.7 mph - N/A Fog Light Freezing Fog
8:00 PM 26 °F - 23 °F 85%  in 0 mi NE 28.8 mph - - Fog Heavy Fog
8:55 PM 28.4 °F 13.0 °F 26.6 °F 93% 29.47 in 0.0 mi NE 28.8 mph - N/A Fog Light Freezing Fog
9:55 PM 28.4 °F 13.8 °F 26.6 °F 93% 29.50 in 0.0 mi NE 25.3 mph - N/A Fog Light Freezing Fog
10:55 PM 30.2 °F 15.7 °F 26.6 °F 86% 29.50 in 0.0 mi NE 27.6 mph - N/A Fog Light Freezing Fog
11:55 PM 30.2 °F 16.2 °F 26.6 °F 86% 29.53 in 0.0 mi NE 25.3 mph - N/A Fog Light Freezing Fog